| time (UTC) | temp F | wind direction | speed knots | gust knots | rain 1hr in | rain 24hr in | rain mn in | humidity % | barometer mb |
| 20260504193034 | 82 | 329 | 2.6 | 11.3 | 0.00 | 0.00 | 0.00 | 86 | 1015.0 |
| 20260504192508 | 83 | 318 | 4.3 | 11.3 | 0.00 | 0.00 | 0.00 | 84 | 1015.1 |
| 20260504192009 | 83 | 288 | 5.2 | 11.3 | 0.00 | 0.00 | 0.00 | 82 | 1015.2 |
| 20260504191529 | 84 | 332 | 4.3 | 11.3 | 0.00 | 0.00 | 0.00 | 80 | 1015.2 |
| 20260504191016 | 86 | 77 | 4.3 | 9.6 | 0.00 | 0.00 | 0.00 | 79 | 1015.3 |
| 20260504190510 | 87 | 55 | 5.2 | 9.6 | 0.00 | 0.00 | 0.00 | 78 | 1015.4 |
| 20260504190031 | 88 | 95 | 4.3 | 8.7 | 0.00 | 0.00 | 0.00 | 78 | 1015.3 |
| 20260504185515 | 88 | 139 | 4.3 | 9.6 | 0.00 | 0.00 | 0.00 | 78 | 1015.1 |
| 20260504185011 | 88 | 107 | 3.5 | 10.4 | 0.00 | 0.00 | 0.00 | 78 | 1015.2 |
| 20260504184529 | 88 | 105 | 5.2 | 10.4 | 0.00 | 0.00 | 0.00 | 78 | 1015.1 |
| 20260504184012 | 88 | 142 | 3.5 | 10.4 | 0.00 | 0.00 | 0.00 | 79 | 1015.2 |
| 20260504183512 | 88 | 159 | 6.1 | 10.4 | 0.00 | 0.00 | 0.00 | 79 | 1015.2 |
| 20260504183030 | 88 | 176 | 4.3 | 9.6 | 0.00 | 0.00 | 0.00 | 78 | 1015.2 |
| 20260504182510 | 89 | 122 | 4.3 | 9.6 | 0.00 | 0.00 | 0.00 | 76 | 1015.3 |
| 20260504182011 | 89 | 144 | 6.1 | 9.6 | 0.00 | 0.00 | 0.00 | 76 | 1015.3 |
| 20260504181528 | 89 | 163 | 5.2 | 12.2 | 0.00 | 0.00 | 0.00 | 76 | 1015.4 |
| 20260504181010 | 89 | 115 | 5.2 | 12.2 | 0.00 | 0.00 | 0.00 | 77 | 1015.4 |
| 20260504180511 | 89 | 147 | 6.1 | 10.4 | 0.00 | 0.00 | 0.00 | 76 | 1015.3 |
| 20260504180030 | 89 | 146 | 5.2 | 10.4 | 0.00 | 0.00 | 0.00 | 78 | 1015.4 |
| 20260504175510 | 89 | 196 | 5.2 | 9.6 | 0.00 | 0.00 | 0.00 | 78 | 1015.5 |
| 20260504175013 | 89 | 114 | 6.1 | 11.3 | 0.00 | 0.00 | 0.00 | 76 | 1015.5 |
| 20260504174530 | 90 | 148 | 6.1 | 13.9 | 0.00 | 0.00 | 0.00 | 76 | 1015.7 |
| 20260504174012 | 90 | 134 | 4.3 | 13.9 | 0.00 | 0.00 | 0.00 | 76 | 1015.7 |
| 20260504173513 | 90 | 165 | 5.2 | 10.4 | 0.00 | 0.00 | 0.00 | 76 | 1015.7 |
| 20260504173036 | 90 | 105 | 4.3 | 10.4 | 0.00 | 0.00 | 0.00 | 76 | 1015.7 |
| 20260504172510 | 90 | 178 | 4.3 | 10.4 | 0.00 | 0.00 | 0.00 | 76 | 1015.7 |
| 20260504172011 | 89 | 94 | 3.5 | 11.3 | 0.00 | 0.00 | 0.00 | 77 | 1015.7 |
| 20260504171532 | 89 | 142 | 7.0 | 12.2 | 0.00 | 0.00 | 0.00 | 76 | 1015.7 |
| 20260504171009 | 90 | 122 | 6.1 | 12.2 | 0.00 | 0.00 | 0.00 | 77 | 1015.6 |
| 20260504170519 | 89 | 185 | 5.2 | 11.3 | 0.00 | 0.00 | 0.00 | 76 | 1015.6 |
| 20260504151016 | 87 | 195 | 4.3 | 9.6 | 0.00 | 0.00 | 0.00 | 80 | 1015.9 |
| 20260504150511 | 87 | 162 | 5.2 | 8.7 | 0.00 | 0.00 | 0.00 | 79 | 1016.0 |
| 20260504141014 | 85 | 173 | 5.2 | 9.6 | 0.00 | 0.00 | 0.00 | 82 | 1015.5 |
| 20260504140509 | 85 | 174 | 3.5 | 7.8 | 0.00 | 0.00 | 0.00 | 83 | 1015.5 |
| 20260504130510 | 83 | 160 | 0.9 | 7.0 | 0.00 | 0.00 | 0.00 | 85 | 1015.2 |
| 20260504110510 | 77 | 0 | 0.0 | 0.9 | 0.00 | 0.00 | 0.00 | 93 | 1014.4 |
| 20260504100509 | 78 | 0 | 0.0 | 0.0 | 0.00 | 0.00 | 0.00 | 91 | 1014.3 |
| 20260504081533 | 80 | 0 | 0.0 | 3.5 | 0.00 | 0.00 | 0.00 | 88 | 1014.0 |
| 20260504081011 | 80 | 128 | 0.9 | 3.5 | 0.00 | 0.00 | 0.00 | 88 | 1014.0 |
| 20260504080510 | 80 | 86 | 0.9 | 4.3 | 0.00 | 0.00 | 0.00 | 88 | 1013.9 |
| 20260504050510 | 82 | 135 | 3.5 | 9.6 | 0.00 | 0.00 | 0.00 | 85 | 1015.9 |
| 20260504045509 | 82 | 136 | 3.5 | 9.6 | 0.00 | 0.00 | 0.00 | 86 | 1015.9 |
| 20260504045016 | 82 | 111 | 5.2 | 9.6 | 0.00 | 0.00 | 0.00 | 86 | 1016.1 |
| 20260504044539 | 82 | 173 | 3.5 | 12.2 | 0.00 | 0.00 | 0.00 | 86 | 1016.0 |
| 20260504044012 | 82 | 157 | 5.2 | 12.2 | 0.00 | 0.00 | 0.00 | 86 | 1015.9 |
| 20260504043512 | 82 | 155 | 5.2 | 13.0 | 0.00 | 0.00 | 0.00 | 86 | 1016.1 |
| 20260504043034 | 82 | 143 | 4.3 | 13.0 | 0.00 | 0.00 | 0.00 | 85 | 1016.0 |
| 20260504042510 | 82 | 120 | 5.2 | 11.3 | 0.00 | 0.00 | 0.00 | 86 | 1016.0 |
| 20260504042009 | 82 | 144 | 4.3 | 11.3 | 0.00 | 0.00 | 0.00 | 85 | 1016.2 |
| 20260504041530 | 82 | 91 | 4.3 | 11.3 | 0.00 | 0.00 | 0.00 | 85 | 1016.2 |
| 20260504041009 | 82 | 123 | 6.1 | 11.3 | 0.00 | 0.00 | 0.00 | 85 | 1016.3 |
| 20260504040515 | 82 | 132 | 4.3 | 10.4 | 0.00 | 0.00 | 0.00 | 86 | 1016.3 |
| 20260504040032 | 82 | 146 | 5.2 | 10.4 | 0.00 | 0.00 | 0.00 | 86 | 1016.3 |
| 20260504035516 | 82 | 121 | 5.2 | 10.4 | 0.00 | 0.00 | 0.00 | 85 | 1016.5 |
| 20260504035011 | 82 | 137 | 4.3 | 8.7 | 0.00 | 0.00 | 0.00 | 85 | 1016.4 |
| 20260504034539 | 82 | 154 | 4.3 | 8.7 | 0.00 | 0.00 | 0.00 | 85 | 1016.5 |
| 20260504034010 | 82 | 155 | 3.5 | 9.6 | 0.00 | 0.00 | 0.00 | 86 | 1016.6 |
| 20260504033515 | 82 | 144 | 4.3 | 9.6 | 0.00 | 0.00 | 0.00 | 85 | 1016.7 |
| 20260504033041 | 82 | 140 | 3.5 | 8.7 | 0.00 | 0.00 | 0.00 | 85 | 1016.6 |
| 20260504032511 | 82 | 115 | 3.5 | 7.8 | 0.00 | 0.00 | 0.00 | 85 | 1016.6 |
| 20260504032012 | 82 | 135 | 3.5 | 7.8 | 0.00 | 0.00 | 0.00 | 85 | 1016.6 |
| 20260504031534 | 82 | 169 | 3.5 | 7.8 | 0.00 | 0.00 | 0.00 | 85 | 1016.6 |
| 20260504031011 | 82 | 130 | 3.5 | 8.7 | 0.00 | 0.00 | 0.00 | 85 | 1016.7 |
| 20260504030510 | 82 | 140 | 4.3 | 8.7 | 0.00 | 0.00 | 0.00 | 85 | 1016.6 |
| 20260504030029 | 82 | 116 | 3.5 | 8.7 | 0.00 | 0.00 | 0.00 | 85 | 1016.6 |
| 20260504025511 | 82 | 163 | 4.3 | 8.7 | 0.00 | 0.00 | 0.00 | 85 | 1016.6 |
| 20260504025010 | 82 | 123 | 3.5 | 7.8 | 0.00 | 0.00 | 0.00 | 85 | 1016.7 |
| 20260504024528 | 82 | 22 | 2.6 | 7.8 | 0.00 | 0.00 | 0.00 | 85 | 1016.7 |
| 20260504024012 | 82 | 101 | 2.6 | 9.6 | 0.00 | 0.00 | 0.00 | 85 | 1016.7 |
| 20260504023513 | 82 | 171 | 3.5 | 9.6 | 0.00 | 0.00 | 0.00 | 85 | 1016.6 |
| 20260504023028 | 82 | 115 | 2.6 | 7.8 | 0.00 | 0.00 | 0.00 | 85 | 1016.5 |
| 20260504022513 | 82 | 103 | 2.6 | 7.0 | 0.00 | 0.00 | 0.00 | 85 | 1016.5 |
| 20260504022011 | 82 | 126 | 3.5 | 8.7 | 0.00 | 0.00 | 0.00 | 85 | 1016.5 |
| 20260504021535 | 82 | 103 | 2.6 | 8.7 | 0.00 | 0.00 | 0.00 | 85 | 1016.5 |
| 20260504021009 | 82 | 117 | 2.6 | 8.7 | 0.00 | 0.00 | 0.00 | 85 | 1016.4 |
| 20260504020511 | 82 | 111 | 2.6 | 8.7 | 0.00 | 0.00 | 0.00 | 84 | 1016.2 |
| 20260504020031 | 82 | 101 | 3.5 | 8.7 | 0.00 | 0.00 | 0.00 | 84 | 1016.1 |
| 20260504015508 | 82 | 129 | 4.3 | 9.6 | 0.00 | 0.00 | 0.00 | 84 | 1016.1 |
| 20260504015011 | 82 | 117 | 4.3 | 9.6 | 0.00 | 0.00 | 0.00 | 84 | 1016.1 |
| 20260504014529 | 82 | 118 | 3.5 | 8.7 | 0.00 | 0.00 | 0.00 | 85 | 1015.9 |
| 20260504014011 | 82 | 132 | 4.3 | 10.4 | 0.00 | 0.00 | 0.00 | 85 | 1015.8 |
| 20260504013512 | 82 | 150 | 4.3 | 12.2 | 0.00 | 0.00 | 0.00 | 84 | 1015.6 |
| 20260504013035 | 82 | 132 | 5.2 | 12.2 | 0.00 | 0.00 | 0.00 | 84 | 1015.4 |
| 20260504012510 | 82 | 130 | 6.1 | 11.3 | 0.00 | 0.00 | 0.00 | 84 | 1015.3 |
| 20260504012011 | 83 | 121 | 6.1 | 13.9 | 0.00 | 0.00 | 0.00 | 85 | 1015.3 |
| 20260504011531 | 83 | 121 | 5.2 | 13.9 | 0.00 | 0.00 | 0.00 | 84 | 1015.3 |
| 20260504011011 | 83 | 136 | 4.3 | 12.2 | 0.00 | 0.00 | 0.00 | 84 | 1015.2 |
| 20260504010508 | 83 | 115 | 6.1 | 12.2 | 0.00 | 0.00 | 0.00 | 84 | 1015.2 |
| 20260504010036 | 83 | 117 | 6.1 | 12.2 | 0.00 | 0.00 | 0.00 | 84 | 1015.1 |
| 20260504005509 | 83 | 128 | 6.1 | 11.3 | 0.00 | 0.00 | 0.00 | 84 | 1015.1 |
| 20260504005010 | 83 | 131 | 6.1 | 11.3 | 0.00 | 0.00 | 0.00 | 84 | 1015.1 |
| 20260504004530 | 83 | 136 | 6.1 | 12.2 | 0.00 | 0.00 | 0.00 | 84 | 1015.1 |
| 20260504004010 | 83 | 117 | 6.1 | 12.2 | 0.00 | 0.00 | 0.00 | 84 | 1014.9 |
| 20260504003509 | 83 | 145 | 5.2 | 10.4 | 0.00 | 0.00 | 0.00 | 85 | 1015.0 |
| 20260504003030 | 83 | 98 | 4.3 | 9.6 | 0.00 | 0.00 | 0.00 | 85 | 1014.9 |
| 20260504002509 | 83 | 135 | 3.5 | 8.7 | 0.00 | 0.00 | 0.00 | 85 | 1014.9 |
| 20260504002009 | 83 | 150 | 3.5 | 9.6 | 0.00 | 0.00 | 0.00 | 85 | 1014.9 |
| 20260504001529 | 83 | 128 | 4.3 | 9.6 | 0.00 | 0.00 | 0.00 | 85 | 1014.9 |
| 20260504001010 | 83 | 129 | 3.5 | 9.6 | 0.00 | 0.00 | 0.00 | 85 | 1014.7 |
| 20260504000509 | 83 | 113 | 4.3 | 9.6 | 0.00 | 0.00 | 0.00 | 85 | 1014.6 |
| 20260504000030 | 83 | 133 | 5.2 | 9.6 | 0.00 | 0.00 | 0.00 | 84 | 1014.7 |
| 20260503235510 | 83 | 165 | 4.3 | 13.0 | 0.00 | 0.00 | 0.00 | 84 | 1014.6 |
| 20260503235011 | 83 | 132 | 6.1 | 13.0 | 0.00 | 0.00 | 0.00 | 84 | 1014.5 |
| 20260503234528 | 83 | 135 | 6.1 | 13.0 | 0.00 | 0.00 | 0.00 | 84 | 1014.5 |
| 20260503234018 | 84 | 103 | 4.3 | 13.0 | 0.00 | 0.00 | 0.00 | 84 | 1014.2 |
| 20260503233513 | 84 | 112 | 7.0 | 13.0 | 0.00 | 0.00 | 0.00 | 83 | 1014.2 |
| 20260503233030 | 84 | 123 | 7.0 | 11.3 | 0.00 | 0.00 | 0.00 | 83 | 1014.1 |
| 20260503232511 | 84 | 144 | 5.2 | 11.3 | 0.00 | 0.00 | 0.00 | 83 | 1014.3 |
| 20260503232016 | 84 | 130 | 6.1 | 12.2 | 0.00 | 0.00 | 0.00 | 83 | 1014.3 |
| 20260503231530 | 85 | 127 | 7.8 | 12.2 | 0.00 | 0.00 | 0.00 | 83 | 1014.2 |
| 20260503231012 | 84 | 145 | 6.1 | 11.3 | 0.00 | 0.00 | 0.00 | 83 | 1014.2 |
| 20260503230511 | 84 | 136 | 4.3 | 11.3 | 0.00 | 0.00 | 0.00 | 83 | 1014.2 |
| 20260503230032 | 84 | 134 | 4.3 | 11.3 | 0.00 | 0.00 | 0.00 | 83 | 1014.3 |
| 20260503225509 | 84 | 168 | 4.3 | 11.3 | 0.00 | 0.00 | 0.00 | 83 | 1014.2 |
| 20260503225009 | 85 | 84 | 7.0 | 10.4 | 0.00 | 0.00 | 0.00 | 83 | 1014.2 |
| 20260503224530 | 85 | 130 | 4.3 | 11.3 | 0.00 | 0.00 | 0.00 | 83 | 1014.2 |
| 20260503224016 | 85 | 118 | 7.0 | 11.3 | 0.00 | 0.00 | 0.00 | 82 | 1014.2 |
| 20260503223511 | 85 | 124 | 6.1 | 11.3 | 0.00 | 0.00 | 0.00 | 82 | 1014.2 |
| 20260503223031 | 86 | 113 | 4.3 | 10.4 | 0.00 | 0.00 | 0.00 | 82 | 1014.2 |
| 20260503222511 | 86 | 162 | 5.2 | 13.0 | 0.00 | 0.00 | 0.00 | 81 | 1014.2 |
| 20260503222008 | 87 | 126 | 6.1 | 13.0 | 0.00 | 0.00 | 0.00 | 81 | 1014.2 |
| 20260503221533 | 87 | 120 | 5.2 | 12.2 | 0.00 | 0.00 | 0.00 | 81 | 1014.2 |
| 20260503221011 | 87 | 96 | 7.0 | 12.2 | 0.00 | 0.00 | 0.00 | 81 | 1014.3 |
| 20260503220509 | 87 | 132 | 7.0 | 13.0 | 0.00 | 0.00 | 0.00 | 80 | 1014.2 |
| 20260503220030 | 87 | 118 | 7.0 | 13.0 | 0.00 | 0.00 | 0.00 | 80 | 1014.2 |
| 20260503215510 | 88 | 138 | 5.2 | 9.6 | 0.00 | 0.00 | 0.00 | 80 | 1014.3 |
| 20260503215011 | 88 | 120 | 4.3 | 11.3 | 0.00 | 0.00 | 0.00 | 80 | 1014.4 |
| 20260503214528 | 88 | 155 | 5.2 | 11.3 | 0.00 | 0.00 | 0.00 | 79 | 1014.5 |
| 20260503214017 | 88 | 46 | 5.2 | 11.3 | 0.00 | 0.00 | 0.00 | 79 | 1014.4 |
| 20260503213510 | 88 | 123 | 6.1 | 11.3 | 0.00 | 0.00 | 0.00 | 80 | 1014.3 |
| 20260503213035 | 88 | 84 | 3.5 | 9.6 | 0.00 | 0.00 | 0.00 | 79 | 1014.3 |
| 20260503212513 | 88 | 86 | 6.1 | 9.6 | 0.00 | 0.00 | 0.00 | 78 | 1014.4 |
| 20260503212009 | 89 | 155 | 3.5 | 9.6 | 0.00 | 0.00 | 0.00 | 78 | 1014.4 |
| 20260503211529 | 90 | 147 | 2.6 | 8.7 | 0.00 | 0.00 | 0.00 | 77 | 1014.4 |
| 20260503211014 | 90 | 86 | 3.5 | 12.2 | 0.00 | 0.00 | 0.00 | 77 | 1014.4 |
| 20260503210509 | 90 | 188 | 4.3 | 12.2 | 0.00 | 0.00 | 0.00 | 77 | 1014.4 |
| 20260503210028 | 90 | 116 | 6.1 | 11.3 | 0.00 | 0.00 | 0.00 | 77 | 1014.4 |
| 20260503205509 | 91 | 114 | 5.2 | 10.4 | 0.00 | 0.00 | 0.00 | 76 | 1014.4 |
| 20260503205017 | 90 | 154 | 3.5 | 10.4 | 0.00 | 0.00 | 0.00 | 76 | 1014.4 |
| 20260503204528 | 90 | 121 | 4.3 | 10.4 | 0.00 | 0.00 | 0.00 | 76 | 1014.4 |
| 20260503204008 | 90 | 143 | 6.1 | 10.4 | 0.00 | 0.00 | 0.00 | 76 | 1014.5 |
| 20260503203509 | 90 | 225 | 4.3 | 9.6 | 0.00 | 0.00 | 0.00 | 77 | 1014.5 |
| 20260503203034 | 89 | 157 | 4.3 | 10.4 | 0.00 | 0.00 | 0.00 | 77 | 1014.5 |
| 20260503202509 | 90 | 71 | 4.3 | 10.4 | 0.00 | 0.00 | 0.00 | 76 | 1014.6 |
| 20260503202013 | 90 | 165 | 5.2 | 10.4 | 0.00 | 0.00 | 0.00 | 76 | 1014.7 |
| 20260503201531 | 90 | 159 | 4.3 | 9.6 | 0.00 | 0.00 | 0.00 | 76 | 1014.7 |
| 20260503201011 | 90 | 153 | 4.3 | 9.6 | 0.00 | 0.00 | 0.00 | 76 | 1014.9 |
| 20260503200510 | 90 | 119 | 4.3 | 11.3 | 0.00 | 0.00 | 0.00 | 77 | 1014.9 |
| 20260503200033 | 89 | 168 | 4.3 | 11.3 | 0.00 | 0.00 | 0.00 | 77 | 1014.8 |
| 20260503195512 | 89 | 149 | 5.2 | 11.3 | 0.00 | 0.00 | 0.00 | 77 | 1014.9 |
| 20260503195012 | 90 | 182 | 5.2 | 11.3 | 0.00 | 0.00 | 0.00 | 76 | 1015.0 |
| 20260503194531 | 90 | 160 | 5.2 | 11.3 | 0.00 | 0.00 | 0.00 | 75 | 1015.0 |
| 20260503194011 | 90 | 125 | 6.1 | 10.4 | 0.00 | 0.00 | 0.00 | 76 | 1014.9 |
| 20260503193513 | 90 | 144 | 3.5 | 10.4 | 0.00 | 0.00 | 0.00 | 76 | 1015.0 |